Date String (YYYY-MM-DD hh:mm:ss) UTC,Instrument flags,Ambient pressure (hPa),Sample flow (lpm),Bypass flow (lpm),Sample temperature (°C),Ambient temperature (°C),ASC tube jacket temperature (°C),LED temperature (°C),Box temperature (°C),Sample RH (%),Span deviation,Mass concentration (μg/m³),Mass concentration (μg/m³),Mass concentration (μg/m³)
DateTimeUTC,F1_M11,P_M11,Q1_M11,Q2_M11,T1_M11,T2_M11,T3_M11,T4_M11,T5_M11,U1_M11,ZSPAN_M11,X0_M11,X2_M11,X1_M11
2022-01-13 04:00:00,,0831.1,4.99,0.00,26.2,25.5,00.0,35.2,28.0,10.6,0000.0,0001.55,0000.07,0000.01
2022-01-13 04:01:00,,0831.2,5.01,0.00,26.2,25.5,00.0,35.2,28.0,10.6,0000.0,0001.55,0000.07,0000.01
2022-01-13 04:02:00,,0831.2,5.00,0.00,26.3,25.5,00.0,35.2,28.0,10.4,0000.0,0001.55,0000.06,0000.01
2022-01-13 04:03:00,,0831.1,4.99,0.00,26.3,25.5,00.0,35.2,28.0,10.4,0000.0,0001.56,0000.07,0000.01
2022-01-13 04:04:00,,0831.2,5.01,0.00,26.3,25.5,00.0,35.2,28.1,10.4,0000.0,0001.63,0000.07,0000.01
2022-01-13 04:05:00,,0831.1,4.99,0.00,26.3,25.5,00.0,35.2,28.1,10.6,0000.0,0002.28,0000.09,0000.01
2022-01-13 04:06:00,,0831.2,5.01,0.00,26.3,25.5,00.0,35.2,28.1,10.3,0000.0,0002.93,0000.10,0000.01
2022-01-13 04:07:00,,0831.2,4.99,0.00,26.3,25.6,00.0,35.2,28.1,10.2,0000.0,0002.92,0000.10,0000.01
2022-01-13 04:08:00,,0831.2,5.00,0.00,26.3,25.6,00.0,35.2,28.1,10.1,0000.0,0002.92,0000.09,0000.01
2022-01-13 04:09:00,,0831.2,5.01,0.00,26.3,25.6,00.0,35.2,28.1,10.0,0000.0,0002.68,0000.09,0000.01
2022-01-13 04:10:00,,0831.1,5.00,0.00,26.3,25.6,00.0,35.2,28.1,10.1,0000.0,0002.42,0000.07,0000.01
2022-01-13 04:11:00,,0831.2,5.00,0.00,26.3,25.6,00.0,35.2,28.1,10.1,0000.0,0003.60,0000.07,0000.01
2022-01-13 04:12:00,,0831.2,4.99,0.00,26.3,25.6,00.0,35.3,28.1,10.3,0000.0,0003.60,0000.07,0000.01
2022-01-13 04:13:00,,0831.2,4.99,0.00,26.3,25.6,00.0,35.3,28.1,10.2,0000.0,0003.60,0000.07,0000.01
2022-01-13 04:14:00,,0831.2,5.01,0.00,26.3,25.6,00.0,35.3,28.1,10.2,0000.0,0003.59,0000.07,0000.01
2022-01-13 04:15:00,,0831.1,5.01,0.00,26.3,25.6,00.0,35.3,28.1,10.4,0000.0,0003.56,0000.07,0000.01
2022-01-13 04:16:00,,0831.1,4.99,0.00,26.3,25.6,00.0,35.3,28.1,10.2,0000.0,0002.52,0000.05,0000.01
2022-01-13 04:17:00,,0831.1,5.00,0.00,26.3,25.6,00.0,35.3,28.1,10.0,0000.0,0001.51,0000.03,0000.00
2022-01-13 04:18:00,,0831.2,5.00,0.00,26.3,25.5,00.0,35.3,28.1,10.1,0000.0,0001.48,0000.04,0000.00
2022-01-13 04:19:00,,0831.2,5.00,0.00,26.3,25.5,00.0,35.3,28.1,09.9,0000.0,0001.50,0000.05,0000.00
2022-01-13 04:20:00,,0831.2,4.99,0.00,26.3,25.5,00.0,35.3,28.1,09.9,0000.0,0001.89,0000.05,0000.00
2022-01-13 04:21:00,,0831.1,5.02,0.00,26.3,25.5,00.0,35.3,28.1,10.3,0000.0,0002.25,0000.06,0000.00
2022-01-13 04:22:00,,0831.1,5.01,0.00,26.3,25.5,00.0,35.3,28.1,10.5,0000.0,0001.35,0000.07,0000.00
2022-01-13 04:23:00,,0831.1,4.99,0.00,26.3,25.5,00.0,35.3,28.1,10.7,0000.0,0001.35,0000.07,0000.00
2022-01-13 04:24:00,,0831.1,5.01,0.00,26.3,25.5,00.0,35.3,28.1,10.7,0000.0,0001.42,0000.08,0000.00
2022-01-13 04:25:00,,0831.1,4.99,0.00,26.3,25.5,00.0,35.3,28.1,10.8,0000.0,0001.48,0000.08,0000.00
2022-01-13 04:26:00,,0831.1,5.01,0.00,26.3,25.5,00.0,35.3,28.0,10.9,0000.0,0001.53,0000.09,0000.00
2022-01-13 04:27:00,,0831.2,4.99,0.00,26.3,25.5,00.0,35.3,28.0,10.9,0000.0,0001.52,0000.08,0000.00
2022-01-13 04:28:00,,0831.2,5.01,0.00,26.3,25.5,00.0,35.3,28.0,10.8,0000.0,0001.52,0000.08,0000.00
2022-01-13 04:29:00,,0831.1,4.98,0.00,26.3,25.5,00.0,35.3,28.1,10.7,0000.0,0001.42,0000.06,0000.00
2022-01-13 04:30:00,,0831.2,5.00,0.00,26.3,25.5,00.0,35.3,28.1,10.6,0000.0,0001.42,0000.06,0000.00
2022-01-13 04:31:00,,0831.2,5.00,0.00,26.3,25.5,00.0,35.3,28.1,10.3,0000.0,0001.02,0000.06,0000.00
2022-01-13 04:32:00,,0831.1,4.99,0.00,26.3,25.5,00.0,35.3,28.1,10.4,0000.0,0000.47,0000.05,0000.00
2022-01-13 04:33:00,,0831.2,5.00,0.00,26.3,25.5,00.0,35.3,28.1,10.6,0000.0,0001.28,0000.04,0000.00
2022-01-13 04:34:00,,0831.1,5.00,0.00,26.3,25.5,00.0,35.3,28.1,10.7,0000.0,0001.50,0000.05,0000.00
2022-01-13 04:35:00,,0831.2,5.00,0.00,26.3,25.5,00.0,35.3,28.1,10.7,0000.0,0001.46,0000.06,0000.00
2022-01-13 04:36:00,,0831.2,4.99,0.00,26.3,25.5,00.0,35.3,28.1,10.7,0000.0,0001.92,0000.08,0000.00
2022-01-13 04:37:00,,0831.2,5.02,0.00,26.3,25.5,00.0,35.3,28.1,10.9,0000.0,0002.04,0000.07,0000.00
2022-01-13 04:38:00,,0831.2,4.99,0.00,26.3,25.5,00.0,35.3,28.1,10.8,0000.0,0002.08,0000.09,0000.00
2022-01-13 04:39:00,,0831.2,5.02,0.00,26.3,25.5,00.0,35.3,28.1,10.7,0000.0,0002.08,0000.09,0000.00
2022-01-13 04:40:00,,0831.2,4.98,0.00,26.3,25.5,00.0,35.3,28.1,10.4,0000.0,0002.14,0000.11,0000.00
2022-01-13 04:41:00,,0831.1,5.01,0.00,26.3,25.4,00.0,35.3,28.1,10.5,0000.0,0002.11,0000.11,0000.00
2022-01-13 04:42:00,,0831.2,4.98,0.00,26.3,25.4,00.0,35.3,28.1,10.7,0000.0,0002.14,0000.12,0000.00
2022-01-13 04:43:00,,0831.1,5.01,0.00,26.3,25.4,00.0,35.3,28.1,10.6,0000.0,0002.19,0000.14,0000.00
2022-01-13 04:44:00,,0831.1,5.01,0.00,26.3,25.4,00.0,35.3,28.1,10.5,0000.0,0001.18,0000.15,0000.01
2022-01-13 04:45:00,,0831.2,4.99,0.00,26.3,25.5,00.0,35.3,28.1,10.1,0000.0,0001.16,0000.15,0000.01
2022-01-13 04:46:00,,0831.2,5.02,0.00,26.3,25.5,00.0,35.3,28.1,10.0,0000.0,0001.40,0000.15,0000.01
2022-01-13 04:47:00,,0831.1,4.98,0.00,26.3,25.5,00.0,35.3,28.1,10.3,0000.0,0001.08,0000.14,0000.01
2022-01-13 04:48:00,,0831.1,5.01,0.00,26.3,25.5,00.0,35.3,28.1,10.5,0000.0,0000.97,0000.14,0000.01
2022-01-13 04:49:00,,0831.1,4.99,0.00,26.3,25.5,00.0,35.3,28.1,10.6,0000.0,0000.93,0000.12,0000.01
2022-01-13 04:50:00,,0831.1,5.01,0.00,26.3,25.5,00.0,35.3,28.1,10.6,0000.0,0000.92,0000.12,0000.00
2022-01-13 04:51:00,,0831.2,5.00,0.00,26.3,25.5,00.0,35.3,28.1,10.5,0000.0,0000.86,0000.10,0000.00
2022-01-13 04:52:00,,0831.2,5.00,0.00,26.3,25.4,00.0,35.3,28.1,10.6,0000.0,0000.85,0000.09,0000.00
2022-01-13 04:53:00,,0831.2,4.99,0.00,26.3,25.4,00.0,35.3,28.0,10.6,0000.0,0000.83,0000.08,0000.01
2022-01-13 04:54:00,,0831.2,5.01,0.00,26.3,25.5,00.0,35.3,28.1,10.7,0000.0,0000.86,0000.08,0000.01
2022-01-13 04:55:00,,0831.2,5.00,0.00,26.3,25.5,00.0,35.3,28.0,10.4,0000.0,0001.82,0000.07,0000.00
2022-01-13 04:56:00,,0831.2,5.00,0.00,26.3,25.5,00.0,35.3,28.0,10.2,0000.0,0001.71,0000.07,0000.00
2022-01-13 04:57:00,,0831.2,5.00,0.00,26.3,25.5,00.0,35.3,28.0,10.4,0000.0,0002.10,0000.06,0000.00
2022-01-13 04:58:00,,0831.1,4.99,0.00,26.3,25.5,00.0,35.3,28.0,10.3,0000.0,0002.41,0000.03,0000.00
2022-01-13 04:59:00,,0831.1,5.01,0.00,26.3,25.5,00.0,35.3,28.0,10.2,0000.0,0004.73,0000.03,0000.00
